Location: Cabrera Baja
(40.4089°N, 4.3354°W)
Time: 02:45:19
(UTC+00:00)

Cosmos 1814 Rocket - Pass Details

Date: 14 July 2020
Orbit: 745 x 786 km, 74.1° (Epoch: 03 August)

Event Time Altitude Azimuth Distance (km) Brightness Sun altitude
Rises 03:55:09 0° 343° (NNW) 3,197 7.6 -10.8°
Reaches altitude 10° 03:57:32 10° 346° (NNW) 2,270 6.8 -10.5°
Maximum altitude 04:02:39 67° 69° (ENE) 812 4.4 -9.7°
Drops below altitude 10° 04:07:46 10° 152° (SSE) 2,270 6.3 -9.0°
Sets 04:10:08 0° 155° (SSE) 3,196 7.1 -8.6°
